Location: Unspecified
(0.0000°N, 0.0000°E)
Time: 19:38:24
(UTC+00:00)

Vanguard 1 - Pass Details

Date: 11 December 2017
Orbit: 650 x 3833 km, 34.2° (Epoch: 21 July)

Event Time Altitude Azimuth Distance (km) Brightness Sun altitude
Rises 20:07:44 0° 270° (W) 2,951 13.4 -30.6°
Reaches altitude 10° 20:10:40 10° 247° (WSW) 2,106 12.7 -31.2°
Maximum altitude 20:13:38 16° 206° (SSW) 1,861 12.0 -31.9°
Drops below altitude 10° 20:17:09 10° 167° (SSE) 2,556 12.3 -32.7°
Sets 20:21:20 0° 147° (SSE) 3,954 13.1 -33.6°
